Tracking 19489 objects as of 22-Jan-2019
HD Live streaming from Space Station
objects crossing your sky now

FLOCK 3K 9

Track FLOCK 3K 9 now!
10-day predictions
FLOCK 3K 9 is classified as:


NORAD ID: 43906
Int'l Code: 2018-111AG
Perigee: 485.4 km
Apogee: 517.3 km
Inclination: 97.3 °
Period: 94.5 minutes
Semi major axis: 6872 km
RCS: Unknown
Launch date: December 27, 2018
Source: United States (US)
Launch site: VOSTOCHNY COSMODROME (VOSTO)
aabbcc
Your satellite tracking list
Your tracking list is empty




NASA's NSSDC Master Catalog

Two Line Element Set (TLE):
1 43906U 18111AG  19022.54590473  .00002136  00000-0  90851-4 0  9994
2 43906  97.2997 291.7382 0023176 147.3832 212.8843 15.23859731  4035
Source of the keplerian elements: AFSPC